Miscellaneous Local Product
Issued by NWS North Platte, NE

Home | Current Version | Previous Version | Text Only | Print | Product List | Glossary On
Versions: 1 2 3 4 5 6 7 8 9 10 11 12 13 14 15 16 17 18 19 20 21 22 23 24 25 26 27 28 29 30 31 32 33 34 35 36 37 38 39 40 41 42 43 44 45 46 47 48 49 50
000
AXUS43 KLBF 290310
MISLBF


WESTERN AND NORTH CENTRAL NEBRASKA HOURLY WEATHER ROUNDUP
NATIONAL WEATHER SERVICE NORTH PLATTE NE
1000 PM CDT FRI AUG 28 2015

NOTE: "FAIR" INDICATES FEW OR NO CLOUDS BELOW 12,000 FEET WITH NO
SIGNIFICANT WEATHER AND/OR OBSTRUCTIONS TO VISIBILITY.

NOTE: STATIONS NOT REPORTING VARIABLES SUCH AS SKY/WEATHER OR
PRESSURE ARE PROVIDED BY THE NEBRASKA DEPARTMENT OF
ROADS...RAWS...AND APRS NETWORKS...AND ARE NOT UNDER
NATIONAL WEATHER SERVICE QUALITY CONTROL.

...OBSERVATIONS IN AND NEAR THE EASTERN PANHANDLE OF NEBRASKA...

CITY           SKY/WX    TMP DP  RH WIND       PRES   REMARKS
PINE RIDGE     CLEAR     63  53  70 CALM      30.09R
CHADRON        CLEAR     71  50  47 VRB5      30.08R
ALLIANCE       CLEAR     64  49  57 CALM      30.14R
SIDNEY         CLEAR     69  42  37 NE3       30.18R
CRESCENT LAKE    N/A     72  49  44 SE3         N/A
BIG SPRINGS      N/A     66  58  76 CALM        N/A
$$

...OBSERVATIONS IN NORTH CENTRAL NEBRASKA...

CITY           SKY/WX    TMP DP  RH WIND       PRES   REMARKS
VALENTINE      CLEAR     65  60  84 SE3       30.06R
THEDFORD       CLEAR     64  61  91 CALM      30.10R
AINSWORTH      CLEAR     65  63  94 CALM      30.08R
O`NEILL        CLEAR     66  65  96 CALM      30.05R
ORD            CLEAR     61  59  93 NW6       30.03R
BROKEN BOW     CLEAR     64  61  90 NW3       30.06R
SPRINGVIEW       N/A     63  61  92 CALM        N/A
SARGENT          N/A     65  62  90 CALM        N/A
CHAMBERS         N/A     64  61  90 CALM        N/A
EWING            N/A     64  60  87 CALM        N/A
$$

...OBSERVATIONS IN SOUTHWEST NEBRASKA AND FAR NORTHEAST COLORADO...

CITY           SKY/WX    TMP DP  RH WIND       PRES   REMARKS
WRAY           FAIR      72  54  52 CALM      30.13R
HOLYOKE        FAIR      66  59  77 CALM      30.14R
IMPERIAL       CLEAR     68  58  70 E5        30.10R
OGALLALA       CLEAR     68  53  59 CALM      30.11R
NORTH PLATTE   CLEAR     64  60  87 CALM      30.08R
MCCOOK         CLEAR     68  61  78 MISG      30.07R
LEXINGTON      CLEAR     65  62  87 CALM      30.06R
PAXTON           N/A     67  61  81 CALM        N/A
BRADY            N/A     65  60  82 CALM        N/A
CALLAWAY         N/A     66  62  86 NE7         N/A
$$

...OBSERVATIONS IN CENTRAL LINCOLN COUNTY AREA...

CITY           SKY/WX    TMP DP  RH WIND       PRES   REMARKS
N.P. AIRPORT   CLEAR     64  60  87 CALM      30.08R
N.P. DOWNTOWN    N/A     70  62  77 CALM        N/A
$$

...SOME OBSERVATIONS FROM AROUND THE REGION...

CITY           SKY/WX    TMP DP  RH WIND       PRES   REMARKS
DENVER         PTCLDY    75  32  20 SE3       30.25R
LARAMIE        CLEAR     62  40  44 CALM      30.37R
CHEYENNE       CLEAR     68  41  37 SE3       30.30R
SCOTTSBLUFF    CLEAR     66  56  70 E3        30.15R
RAPID CITY     CLEAR     66  59  78 CALM      30.07R
PIERRE         CLEAR     71  66  84 S8        29.98R
WINNER         FAIR      68  63  84 S5        30.03R
SIOUX FALLS    PTCLDY    61  57  87 E7        30.02R
OMAHA          CLOUDY    64  63  96 N10       29.94R
GRAND ISLAND   CLEAR     65  61  87 N7        30.03R
KANSAS CITY    MOCLDY    73  67  81 S17       29.93R
WICHITA        CLEAR     75  65  70 CALM      29.94S
HAYS           PTCLDY    73  59  60 NE9       30.03R
LIBERAL        PTCLDY    77  55  47 SW5       30.05R
GOODLAND       CLEAR     67  52  58 CALM      30.12R
$$



USA.gov is the U.S. government's official web portal to all federal, state and local government web resources and services.